SAS11T EKCH-LSZH

Flight info

Callsign SAS11T
Flight time 1h 29m
Altitude 36000
Route NEXEN2C NEXEN T503 GIMRU DCT MICOS DCT TOLGI DCT SWALM DCT OMOGI/N0446F370 T721 RILAX RILAX2A
Aircraft A320/M-SDE3FGHIRWY/LB1

Departure

Time 2026-05-04 11:34
Airport Copenhagen Kastrup Airport (EKCH)

Arrival

Time 2026-05-04 13:03
Airport Zürich Airport (LSZH)
Time Latitude Longitude Altitude Speed Heading
2026-05-04 10:39 55.62713 12.64460 24 ft 0 kts 102°
2026-05-04 11:23 55.62714 12.64460 24 ft 0 kts 102°
2026-05-04 11:24 55.62748 12.64377 27 ft 1 kts 207°
2026-05-04 11:27 55.62731 12.64362 24 ft 8 kts 207°
2026-05-04 11:28 55.62658 12.64305 24 ft 15 kts 201°
2026-05-04 11:28 55.62581 12.64265 24 ft 13 kts 157°
2026-05-04 11:28 55.62524 12.64406 26 ft 12 kts 124°
2026-05-04 11:28 55.62456 12.64479 24 ft 13 kts 192°
2026-05-04 11:29 55.62360 12.64433 23 ft 15 kts 195°
2026-05-04 11:29 55.62246 12.64378 22 ft 18 kts 195°
2026-05-04 11:29 55.62126 12.64281 23 ft 19 kts 205°
2026-05-04 11:29 55.62000 12.64175 24 ft 21 kts 205°
2026-05-04 11:31 55.61663 12.63948 25 ft 0 kts 175°
2026-05-04 11:33 55.61213 12.63430 27 ft 87 kts 221°
2026-05-04 11:33 55.60616 12.62504 27 ft 138 kts 221°
2026-05-04 11:33 55.59805 12.61229 227 ft 162 kts 226°
2026-05-04 11:34 55.58937 12.59940 767 ft 166 kts 223°
2026-05-04 11:34 55.58017 12.58653 1394 ft 170 kts 220°
2026-05-04 11:34 55.57082 12.57368 1975 ft 172 kts 223°
2026-05-04 11:34 55.56100 12.55995 2359 ft 191 kts 222°
2026-05-04 11:35 55.54974 12.54507 2626 ft 215 kts 221°
2026-05-04 11:35 55.53698 12.52869 2995 ft 239 kts 220°
2026-05-04 11:35 55.52337 12.51165 3996 ft 231 kts 219°
2026-05-04 11:35 55.51083 12.49631 5365 ft 208 kts 219°
2026-05-04 11:36 55.49939 12.48242 6474 ft 196 kts 220°
2026-05-04 11:36 55.48827 12.46881 7397 ft 194 kts 220°
2026-05-04 11:36 55.47720 12.45522 8312 ft 194 kts 220°
2026-05-04 11:36 55.46623 12.44181 9239 ft 195 kts 220°
2026-05-04 11:37 55.45505 12.42814 10134 ft 197 kts 220°
2026-05-04 11:37 55.44374 12.41431 10948 ft 199 kts 220°
2026-05-04 11:37 55.43229 12.40033 11763 ft 201 kts 220°
2026-05-04 11:37 55.42068 12.38614 12565 ft 205 kts 220°
2026-05-04 11:38 55.40890 12.37177 13391 ft 207 kts 220°
2026-05-04 11:38 55.39696 12.35723 14132 ft 210 kts 220°
2026-05-04 11:38 55.38488 12.34254 14748 ft 212 kts 220°
2026-05-04 11:38 55.37271 12.32775 15493 ft 213 kts 220°
2026-05-04 11:39 55.36045 12.31283 16241 ft 215 kts 220°
2026-05-04 11:39 55.34810 12.29782 16993 ft 217 kts 220°
2026-05-04 11:40 55.27151 12.20509 20914 ft 232 kts 220°
2026-05-04 11:41 55.25813 12.18903 21494 ft 235 kts 220°
2026-05-04 11:41 55.24448 12.17260 22104 ft 238 kts 220°
2026-05-04 11:41 55.23074 12.15602 22707 ft 242 kts 220°
2026-05-04 11:41 55.21637 12.13865 22902 ft 259 kts 220°
2026-05-04 11:42 55.20098 12.11996 23048 ft 280 kts 220°
2026-05-04 11:42 55.18458 12.09930 23188 ft 301 kts 221°
2026-05-04 11:42 55.16715 12.07677 23307 ft 322 kts 221°
2026-05-04 11:42 55.14881 12.05297 23452 ft 343 kts 220°
2026-05-04 11:43 55.12920 12.02769 23722 ft 355 kts 220°
2026-05-04 11:43 55.10908 12.00203 24106 ft 360 kts 220°
2026-05-04 11:43 55.08870 11.97616 24551 ft 362 kts 220°
2026-05-04 11:43 55.06828 11.95028 24992 ft 364 kts 220°
2026-05-04 11:44 55.04776 11.92430 25429 ft 366 kts 220°
2026-05-04 11:44 55.02712 11.89805 25859 ft 368 kts 220°
2026-05-04 11:44 55.00640 11.87175 26276 ft 369 kts 220°
2026-05-04 11:44 54.98558 11.84543 26697 ft 371 kts 220°
2026-05-04 11:45 54.96462 11.81895 27098 ft 372 kts 220°
2026-05-04 11:45 54.94368 11.79238 27477 ft 373 kts 221°
2026-05-04 11:45 54.92271 11.76587 28005 ft 372 kts 221°
2026-05-04 11:45 54.90174 11.73944 28460 ft 372 kts 221°
2026-05-04 11:46 54.88075 11.71298 28862 ft 373 kts 221°
2026-05-04 11:46 54.85964 11.68643 29251 ft 375 kts 221°
2026-05-04 11:46 54.83849 11.65994 29632 ft 377 kts 221°
2026-05-04 11:46 54.81713 11.63327 30005 ft 378 kts 221°
2026-05-04 11:47 54.79574 11.60655 30317 ft 380 kts 221°
2026-05-04 11:47 54.77423 11.57964 30598 ft 383 kts 221°
2026-05-04 11:47 54.75258 11.55258 30876 ft 385 kts 220°
2026-05-04 11:47 54.73104 11.52572 31153 ft 387 kts 220°
2026-05-04 11:48 54.70886 11.49803 31402 ft 389 kts 220°
2026-05-04 11:48 54.68714 11.47097 31712 ft 390 kts 220°
2026-05-04 11:48 54.66510 11.44351 32029 ft 391 kts 220°
2026-05-04 11:48 54.64304 11.41620 32409 ft 390 kts 219°
2026-05-04 11:49 54.62099 11.38894 32779 ft 390 kts 219°
2026-05-04 11:49 54.59894 11.36163 33139 ft 390 kts 219°
2026-05-04 11:49 54.57686 11.33433 33438 ft 392 kts 219°
2026-05-04 11:49 54.55460 11.30686 33715 ft 394 kts 219°
2026-05-04 11:50 54.53225 11.27939 34034 ft 395 kts 218°
2026-05-04 11:50 54.50981 11.25200 34302 ft 396 kts 218°
2026-05-04 11:50 54.48724 11.22466 34549 ft 397 kts 218°
2026-05-04 11:50 54.46458 11.19728 34811 ft 397 kts 218°
2026-05-04 11:51 54.44196 11.16995 35079 ft 398 kts 218°
2026-05-04 11:51 54.41928 11.14251 35305 ft 400 kts 218°
2026-05-04 11:51 54.39653 11.11495 35528 ft 401 kts 218°
2026-05-04 11:51 54.37367 11.08729 35746 ft 403 kts 218°
2026-05-04 11:52 54.35068 11.05959 35964 ft 404 kts 218°
2026-05-04 11:52 54.32757 11.03190 36176 ft 406 kts 217°
2026-05-04 11:52 54.30359 11.00628 36383 ft 410 kts 210°
2026-05-04 11:52 54.27743 10.98746 36573 ft 414 kts 204°
2026-05-04 11:53 54.25034 10.97048 36746 ft 416 kts 204°
2026-05-04 11:53 54.22315 10.95341 36932 ft 417 kts 204°
2026-05-04 11:53 54.19591 10.93627 36981 ft 418 kts 204°
2026-05-04 11:55 53.96993 10.79478 36996 ft 438 kts 204°
2026-05-04 11:56 53.91268 10.75930 37001 ft 438 kts 204°
2026-05-04 11:56 53.85543 10.72388 37008 ft 438 kts 204°
2026-05-04 11:57 53.79812 10.68846 37015 ft 439 kts 204°
2026-05-04 11:57 53.74098 10.65333 36990 ft 440 kts 204°
2026-05-04 11:58 53.68336 10.61802 36995 ft 441 kts 204°
2026-05-04 11:58 53.62550 10.58265 37002 ft 442 kts 204°
2026-05-04 11:59 53.56758 10.54727 37004 ft 443 kts 204°
2026-05-04 11:59 53.50966 10.51199 36994 ft 443 kts 204°
2026-05-04 12:00 53.45159 10.47678 37000 ft 444 kts 204°
2026-05-04 12:00 53.39381 10.44189 37010 ft 444 kts 204°
2026-05-04 12:01 53.33563 10.40690 37011 ft 444 kts 204°
2026-05-04 12:02 53.13405 10.28618 36977 ft 437 kts 204°
2026-05-04 12:03 53.07682 10.25209 36976 ft 437 kts 204°
2026-05-04 12:03 53.01959 10.21813 36975 ft 437 kts 204°
2026-05-04 12:04 52.96221 10.18422 36985 ft 438 kts 204°
2026-05-04 12:04 52.90512 10.15057 36998 ft 438 kts 204°
2026-05-04 12:05 52.84717 10.11644 37009 ft 440 kts 204°
2026-05-04 12:05 52.78983 10.08278 36997 ft 439 kts 204°
2026-05-04 12:06 52.73226 10.04919 37009 ft 438 kts 204°
2026-05-04 12:06 52.67487 10.01571 37007 ft 437 kts 204°
2026-05-04 12:07 52.62693 9.98776 37006 ft 436 kts 204°
2026-05-04 12:07 52.56966 9.95447 36996 ft 436 kts 203°
2026-05-04 12:08 52.51260 9.92143 37006 ft 434 kts 203°
2026-05-04 12:08 52.45608 9.88889 37029 ft 432 kts 203°
2026-05-04 12:09 52.39928 9.85618 37031 ft 433 kts 203°
2026-05-04 12:09 52.34216 9.82336 37009 ft 432 kts 203°
2026-05-04 12:10 52.28557 9.79092 37021 ft 430 kts 203°
2026-05-04 12:10 52.22916 9.75874 37019 ft 430 kts 203°
2026-05-04 12:11 52.17301 9.72686 37014 ft 430 kts 203°
2026-05-04 12:11 52.11655 9.69483 36990 ft 429 kts 203°
2026-05-04 12:12 52.06026 9.66288 37005 ft 428 kts 203°
2026-05-04 12:12 52.00398 9.63111 37010 ft 428 kts 203°
2026-05-04 12:14 51.77706 9.51701 37002 ft 430 kts 195°
2026-05-04 12:15 51.71829 9.49943 37006 ft 430 kts 195°
2026-05-04 12:15 51.65933 9.48186 36999 ft 431 kts 194°
2026-05-04 12:16 51.60043 9.46427 37016 ft 430 kts 194°
2026-05-04 12:16 51.54200 9.44677 37024 ft 430 kts 194°
2026-05-04 12:17 51.48323 9.42925 37028 ft 429 kts 194°
2026-05-04 12:17 51.42450 9.41179 37010 ft 429 kts 194°
2026-05-04 12:18 51.36579 9.39443 37019 ft 429 kts 194°
2026-05-04 12:18 51.30700 9.37707 37002 ft 429 kts 194°
2026-05-04 12:19 51.24828 9.35990 37020 ft 429 kts 194°
2026-05-04 12:19 51.18954 9.34258 37002 ft 429 kts 194°
2026-05-04 12:20 51.13103 9.32537 37007 ft 431 kts 194°
2026-05-04 12:20 51.07165 9.30805 37018 ft 431 kts 194°
2026-05-04 12:21 51.01293 9.29096 37024 ft 432 kts 194°
2026-05-04 12:21 50.95381 9.27376 37004 ft 432 kts 194°
2026-05-04 12:22 50.89465 9.25663 37008 ft 432 kts 194°
2026-05-04 12:22 50.83551 9.23961 37008 ft 432 kts 194°
2026-05-04 12:23 50.77639 9.22252 37009 ft 432 kts 194°
2026-05-04 12:23 50.71711 9.20554 37009 ft 433 kts 193°
2026-05-04 12:24 50.65748 9.19139 37015 ft 434 kts 191°
2026-05-04 12:24 50.59748 9.17992 37014 ft 434 kts 191°
2026-05-04 12:25 50.53743 9.16830 37014 ft 434 kts 191°
2026-05-04 12:25 50.47754 9.15609 37002 ft 434 kts 191°
2026-05-04 12:26 50.41798 9.14373 37009 ft 434 kts 191°
2026-05-04 12:26 50.35803 9.13122 37012 ft 434 kts 191°
2026-05-04 12:27 50.29803 9.11886 37014 ft 435 kts 191°
2026-05-04 12:27 50.23805 9.10658 37012 ft 435 kts 191°
2026-05-04 12:28 50.17790 9.09435 37017 ft 435 kts 191°
2026-05-04 12:28 50.11787 9.08214 37017 ft 435 kts 191°
2026-05-04 12:29 50.05770 9.06994 37012 ft 436 kts 191°
2026-05-04 12:29 49.99792 9.05783 37019 ft 435 kts 191°
2026-05-04 12:30 49.93781 9.04573 37023 ft 435 kts 191°
2026-05-04 12:30 49.87769 9.03364 37031 ft 435 kts 191°
2026-05-04 12:31 49.81755 9.02151 37021 ft 435 kts 190°
2026-05-04 12:31 49.75750 9.00952 37026 ft 435 kts 190°
2026-05-04 12:32 49.66724 8.99143 37032 ft 435 kts 191°
2026-05-04 12:33 49.60740 8.97744 37021 ft 434 kts 193°
2026-05-04 12:33 49.54838 8.96041 37024 ft 434 kts 193°
2026-05-04 12:34 49.48898 8.94319 37027 ft 434 kts 193°
2026-05-04 12:34 49.42947 8.92672 37025 ft 435 kts 193°
2026-05-04 12:35 49.36982 8.91064 37024 ft 435 kts 193°
2026-05-04 12:35 49.31013 8.89456 37029 ft 435 kts 193°
2026-05-04 12:36 49.25051 8.87839 37031 ft 435 kts 193°
2026-05-04 12:36 49.19093 8.86212 37026 ft 435 kts 193°
2026-05-04 12:37 49.13140 8.84583 37018 ft 435 kts 193°
2026-05-04 12:37 49.07173 8.82955 37022 ft 435 kts 193°
2026-05-04 12:38 49.01209 8.81334 37024 ft 436 kts 193°
2026-05-04 12:38 48.95283 8.79728 37011 ft 433 kts 193°
2026-05-04 12:38 48.92357 8.78939 36992 ft 420 kts 193°
2026-05-04 12:39 48.89508 8.78170 37001 ft 414 kts 193°
2026-05-04 12:39 48.83847 8.76630 36989 ft 413 kts 193°
2026-05-04 12:40 48.78190 8.75106 36996 ft 413 kts 193°
2026-05-04 12:40 48.72531 8.73596 36867 ft 415 kts 193°
2026-05-04 12:40 48.69699 8.72837 36611 ft 409 kts 193°
2026-05-04 12:41 48.66902 8.72092 36509 ft 408 kts 193°
2026-05-04 12:41 48.61310 8.70598 36319 ft 408 kts 193°
2026-05-04 12:42 48.55766 8.69128 36006 ft 407 kts 193°
2026-05-04 12:42 48.52950 8.68387 35363 ft 402 kts 193°
2026-05-04 12:42 48.50253 8.67676 34666 ft 396 kts 193°
2026-05-04 12:42 48.47560 8.66967 33943 ft 390 kts 193°
2026-05-04 12:43 48.44900 8.66268 33133 ft 384 kts 193°
2026-05-04 12:43 48.42289 8.65581 32405 ft 378 kts 193°
2026-05-04 12:43 48.39715 8.64903 31838 ft 373 kts 193°
2026-05-04 12:43 48.37157 8.64219 31370 ft 374 kts 193°
2026-05-04 12:44 48.34601 8.63486 30857 ft 373 kts 194°
2026-05-04 12:44 48.32060 8.62713 30365 ft 372 kts 194°
2026-05-04 12:44 48.29554 8.61932 29824 ft 363 kts 194°
2026-05-04 12:44 48.27092 8.61170 29321 ft 359 kts 194°
2026-05-04 12:45 48.24653 8.60421 28834 ft 356 kts 194°
2026-05-04 12:45 48.22232 8.59685 28356 ft 354 kts 194°
2026-05-04 12:45 48.19825 8.58959 27873 ft 351 kts 194°
2026-05-04 12:45 48.17437 8.58237 27401 ft 350 kts 194°
2026-05-04 12:46 48.15063 8.57522 26916 ft 346 kts 194°
2026-05-04 12:46 48.12708 8.56814 26440 ft 344 kts 193°
2026-05-04 12:46 48.10367 8.56115 25975 ft 342 kts 193°
2026-05-04 12:46 48.08067 8.55433 25523 ft 340 kts 193°
2026-05-04 12:47 48.05750 8.54746 25085 ft 338 kts 193°
2026-05-04 12:47 48.03443 8.54059 24648 ft 338 kts 193°
2026-05-04 12:47 48.01137 8.53372 24219 ft 338 kts 193°
2026-05-04 12:47 47.98829 8.52730 23798 ft 337 kts 188°
2026-05-04 12:48 47.96476 8.52644 23342 ft 339 kts 177°
2026-05-04 12:48 47.94158 8.53275 22912 ft 340 kts 166°
2026-05-04 12:48 47.91958 8.54603 22496 ft 342 kts 155°
2026-05-04 12:48 47.89975 8.56584 22058 ft 345 kts 144°
2026-05-04 12:49 47.88129 8.58854 21633 ft 344 kts 144°
2026-05-04 12:49 47.86285 8.61108 21193 ft 342 kts 144°
2026-05-04 12:49 47.84443 8.63349 20743 ft 341 kts 144°
2026-05-04 12:49 47.82608 8.65574 20287 ft 340 kts 144°
2026-05-04 12:50 47.80768 8.67803 19817 ft 340 kts 144°
2026-05-04 12:50 47.78939 8.70020 19354 ft 340 kts 144°
2026-05-04 12:50 47.77102 8.72244 18872 ft 341 kts 144°
2026-05-04 12:50 47.75261 8.74466 18389 ft 341 kts 144°
2026-05-04 12:51 47.73424 8.76681 17849 ft 335 kts 144°
2026-05-04 12:51 47.71652 8.78826 17377 ft 322 kts 144°
2026-05-04 12:51 47.69936 8.80902 16918 ft 315 kts 144°
2026-05-04 12:51 47.68239 8.82948 16470 ft 313 kts 144°
2026-05-04 12:52 47.66550 8.84981 15994 ft 312 kts 144°
2026-05-04 12:52 47.64862 8.87010 15553 ft 312 kts 144°
2026-05-04 12:52 47.63214 8.89055 15097 ft 312 kts 139°
2026-05-04 12:52 47.61806 8.91466 14645 ft 307 kts 128°
2026-05-04 12:53 47.60675 8.94163 13956 ft 310 kts 127°
2026-05-04 12:53 47.59218 8.96461 13266 ft 304 kts 148°
2026-05-04 12:53 47.57371 8.97802 12812 ft 290 kts 168°
2026-05-04 12:53 47.55423 8.98110 12399 ft 277 kts 187°
2026-05-04 12:54 47.53588 8.97450 11999 ft 268 kts 206°
2026-05-04 12:54 47.52049 8.96002 11618 ft 261 kts 223°
2026-05-04 12:54 47.51240 8.94694 11369 ft 258 kts 234°
2026-05-04 12:54 47.50417 8.92389 11002 ft 252 kts 251°
2026-05-04 12:55 47.50103 8.89874 10640 ft 248 kts 268°
2026-05-04 12:55 47.50312 8.87352 10389 ft 247 kts 285°
2026-05-04 12:55 47.51019 8.85012 10315 ft 252 kts 302°
2026-05-04 12:55 47.52142 8.82992 10210 ft 255 kts 309°
2026-05-04 12:56 47.53316 8.81044 10105 ft 254 kts 309°
2026-05-04 12:56 47.54487 8.79090 9991 ft 254 kts 309°
2026-05-04 12:56 47.55682 8.77079 9406 ft 269 kts 307°
2026-05-04 12:56 47.56817 8.74785 8702 ft 283 kts 300°
2026-05-04 12:57 47.57771 8.72183 8048 ft 292 kts 292°
2026-05-04 12:57 47.58491 8.69317 7374 ft 301 kts 284°
2026-05-04 12:57 47.58928 8.66300 6706 ft 302 kts 275°
2026-05-04 12:57 47.59122 8.62985 5943 ft 341 kts 273°
2026-05-04 12:58 47.59292 8.59518 5205 ft 331 kts 274°
2026-05-04 12:58 47.59457 8.56254 5047 ft 304 kts 274°
2026-05-04 12:58 47.59606 8.53270 4982 ft 278 kts 274°
2026-05-04 12:58 47.59745 8.50523 4916 ft 258 kts 274°
2026-05-04 12:59 47.59877 8.47920 4594 ft 248 kts 275°
2026-05-04 12:59 47.60003 8.45455 4424 ft 232 kts 275°
2026-05-04 12:59 47.60062 8.43109 4260 ft 225 kts 261°
2026-05-04 12:59 47.59403 8.41238 4087 ft 201 kts 218°
2026-05-04 13:00 47.58163 8.40707 3895 ft 186 kts 167°
2026-05-04 13:00 47.57090 8.41605 3701 ft 172 kts 139°
2026-05-04 13:00 47.56207 8.42716 3519 ft 164 kts 138°
2026-05-04 13:00 47.55363 8.43834 3344 ft 162 kts 136°
2026-05-04 13:01 47.54526 8.44966 3057 ft 164 kts 137°
2026-05-04 13:01 47.53653 8.46124 2742 ft 182 kts 137°
2026-05-04 13:01 47.52733 8.47387 2758 ft 174 kts 135°
2026-05-04 13:01 47.51877 8.48591 2485 ft 166 kts 136°
2026-05-04 13:02 47.51050 8.49729 2154 ft 157 kts 137°
2026-05-04 13:02 47.50280 8.50763 1950 ft 143 kts 135°
2026-05-04 13:02 47.49550 8.51784 1791 ft 152 kts 134°
2026-05-04 13:02 47.48796 8.52814 1591 ft 142 kts 135°
2026-05-04 13:03 47.48105 8.53746 1413 ft 128 kts 137°
2026-05-04 13:03 47.47507 8.54567 1397 ft 97 kts 137°
2026-05-04 13:03 47.47136 8.55072 1388 ft 48 kts 137°
2026-05-04 13:03 47.46960 8.55313 1390 ft 37 kts 137°
2026-05-04 13:04 47.46767 8.55567 1394 ft 25 kts 143°
2026-05-04 13:04 47.46626 8.55667 1402 ft 14 kts 166°
2026-05-04 13:04 47.46525 8.55701 1399 ft 16 kts 166°
2026-05-04 13:04 47.46418 8.55738 1403 ft 15 kts 164°
2026-05-04 13:05 47.46331 8.55828 1400 ft 16 kts 137°
2026-05-04 13:05 47.46251 8.55937 1407 ft 16 kts 137°
2026-05-04 13:05 47.46156 8.56000 1406 ft 16 kts 187°
2026-05-04 13:05 47.46044 8.55982 1407 ft 17 kts 185°
2026-05-04 13:06 47.45923 8.55946 1407 ft 9 kts 198°
2026-05-04 13:06 47.45867 8.55916 1414 ft 8 kts 200°
2026-05-04 13:06 47.45808 8.55885 1413 ft 10 kts 198°
2026-05-04 13:06 47.45730 8.55869 1411 ft 13 kts 185°
2026-05-04 13:07 47.45631 8.55854 1409 ft 13 kts 186°
2026-05-04 13:07 47.45547 8.55841 1408 ft 11 kts 186°
2026-05-04 13:07 47.45508 8.55754 1407 ft 13 kts 275°
2026-05-04 13:07 47.45516 8.55643 1407 ft 10 kts 276°
2026-05-04 13:08 47.45513 8.55588 1411 ft 6 kts 233°
2026-05-04 13:08 47.45466 8.55572 1407 ft 7 kts 187°
2026-05-04 13:08 47.45445 8.55570 1407 ft 3 kts 184°
2026-05-04 13:08 47.45436 8.55569 1407 ft 0 kts 185°